Location: Chamberlain Observatory
(39.0028°N, 90.1630°W)
Time: 11:16:27
(UTC-05:00)

Daily predictions for brighter satellites

Satellite Brightness Start Highest point End
(mag) Time Altitude Azimuth Time Altitude Azimuth Time Altitude Azimuth
CZ-3B DEB 3.4 19:24:19 10° SSW 19:38:00 70° SE 19:44:06 10° NE
Cosmos 1812 Rocket 4.2 19:36:02 10° SSE 19:40:02 34° E 19:44:01 10° NNE
Meteor 2-15 Rocket 4.5 19:33:53 10° N 19:40:04 79° E 19:46:11 10° S
Resurs 01 Rocket 2.5 19:37:14 10° SE 19:41:04 30° ENE 19:44:56 10° N
Cosmos 1766 4.3 19:38:06 10° SE 19:41:13 23° E 19:44:19 10° NE
RESURS DK-1 3.8 19:39:21 10° N 19:42:28 20° NE 19:45:33 10° ESE
COSMOS 2406 3.3 19:38:19 10° NNW 19:44:03 68° ENE 19:49:44 10° SSE
Cosmos 1680 Rocket 4.3 19:39:58 10° NNW 19:45:09 59° WSW 19:50:16 10° S
Cosmos 1937 Rocket 3.7 19:40:29 10° S 19:45:31 51° ESE 19:50:38 10° NNE
BREEZE-M DEB (TANK) 4.3 19:44:35 10° SSE 19:46:35 15° ESE 19:49:43 10° E
SL-27 R/B 3.9 19:44:33 10° NNE 19:47:17 20° ENE 19:50:02 10° ESE
Lacrosse 5 2.4 19:45:44 10° SSW 19:50:24 39° SE 19:55:07 10° ENE
Cosmos 2298 Rocket 4.0 19:47:48 10° S 19:53:04 76° ESE 19:58:24 10° NNE
Cosmos 2228 3.9 19:49:07 10° SSW 19:53:16 55° W 19:57:27 10° N
Cosmos 1000 Rocket 4.5 19:48:42 10° N 19:54:52 73° E 20:01:04 10° SSE
Delta 2 Rocket 3.9 19:51:44 10° W 19:56:27 56° S 20:00:11 12° ESE
Cosmos 1844 3.7 19:51:23 10° SSW 19:57:05 70° ESE 20:02:52 10° NNE
SeaSat 1 2.5 19:53:02 10° SSE 19:57:58 88° ENE 20:02:55 10° NNW
Cosmos 2123 Rocket 4.3 19:56:32 10° N 20:02:37 47° ENE 20:08:37 10° SSE
FREGAT/IRIS 3.8 20:03:29 10° S 20:06:27 47° W 20:09:26 10° NNW
Cosmos 405 3.9 20:03:35 10° SSW 20:07:01 52° W 20:10:29 10° N
Cosmos 2344 3.6 20:03:11 10° SSW 20:10:50 77° ESE 20:19:13 10° NE
CZ-2D R/B 3.6 20:08:06 10° SE 20:11:45 43° ENE 20:15:27 10° N
Helios 1B rocket 3.1 20:12:52 10° NNE 20:16:37 32° E 20:20:18 10° SSE
Helios 1A 3.7 20:14:06 14° SE 20:17:08 34° ENE 20:20:55 10° N
Cosmos 1805 3.9 20:14:25 10° SSE 20:17:54 32° E 20:21:24 10° NNE
Meteor 1-22 Rocket 4.3 20:14:29 10° S 20:20:14 83° E 20:26:15 10° N
Cosmos 1437 Rocket 3.5 20:16:56 10° SSW 20:20:50 58° W 20:24:51 10° N
SJ-6B 4.1 20:17:53 10° S 20:21:24 39° W 20:24:57 10° NNW
Lacrosse 4 Rocket 2.7 20:21:41 10° SW 20:25:31 41° WNW 20:29:23 10° NNE
Resurs 1-3 3.5 20:24:18 10° SSE 20:28:40 85° E 20:33:06 10° NNW
Spot 2 Rocket 3.7 20:33:37 10° S 20:38:41 72° WSW 20:43:49 10° NNW
In-Cosmos 22 3.9 20:34:57 10° N 20:40:18 77° E 20:45:34 10° SSE
Cosmos 1844 Rocket 4.2 20:35:23 10° SW 20:40:37 38° WNW 20:45:52 10° N
Cosmos 1758 3.3 20:37:46 10° S 20:41:38 54° E 20:45:32 10° NNE
USA 215 3.2 20:38:36 10° NE 20:45:09 71° SE 20:51:38 10° SW
SAR-Lupe-4 3.4 20:45:20 28° SSE 20:47:08 87° ENE 20:50:44 10° NNW
Cosmos 1459 Rocket 4.5 20:45:23 24° SE 20:48:13 36° E 20:53:49 10° NNE
Tiangong 1 0.8 20:45:57 10° WNW 20:48:48 84° NW 20:48:48 84° NW
Cosmos 1939 Rocket 3.4 20:49:27 39° ENE 20:49:34 39° ENE 20:53:27 10° N
Cosmos 2278 Rocket 2.3 20:44:08 10° SSW 20:49:48 77° WNW 20:55:31 10° NNE
CZ-3 Stage 3 3.9 20:05:39 10° WSW 20:50:01 60° S 20:54:41 29° ESE
Cosmos 2173 Rocket 4.4 20:48:08 28° SE 20:50:17 36° E 20:55:54 10° NNE
Cosmos 1833 Rocket 3.4 20:46:38 10° N 20:51:41 33° ENE 20:52:40 31° E
Cosmos 1953 2.2 20:47:54 10° S 20:51:56 68° E 20:55:59 10° NNE
Cosmos 1408 Rocket 4.0 20:48:57 10° N 20:53:11 41° ENE 20:53:15 41° E
USA 186 2.9 20:56:31 28° NW 20:56:31 28° NW 20:57:51 10° NNW
Okean 3 Rocket 3.6 20:51:50 10° N 20:56:13 79° W 20:59:28 18° S
Envisat 3.0 20:54:30 34° SE 20:56:35 61° ENE 21:01:36 10° N
Abrixas 4.3 20:56:23 10° NW 20:58:09 22° N 20:58:09 22° N
Cosmos 2297 3.6 20:56:31 10° S 21:02:06 61° ESE 21:07:46 10° NNE
Cosmos 1125 Rocket 3.3 20:57:46 10° S 21:02:54 72° ESE 21:08:07 10° NNE
Cosmos 1048 Rocket 4.0 21:03:42 10° N 21:08:45 55° ENE 21:09:09 53° E
CZ-4B DEB 3.9 21:14:22 40° NW 21:14:22 40° NW 21:16:38 10° NNW
BREEZE-M DEB (TANK) 4.1 21:10:38 10° W 21:13:44 53° NNW 21:22:54 10° ENE
Meteor 1-4 Rocket 3.1 21:14:46 53° WSW 21:15:03 55° W 21:18:29 10° N
Lacrosse 5 rocket 3.5 21:13:24 10° N 21:15:09 15° NNE 21:15:09 15° NNE
GP-B 3.2 21:14:49 36° S 21:16:35 74° W 21:21:02 10° N
USA 267 4.2 21:14:41 27° ENE 21:16:52 33° NNE 21:22:34 10° NNW
Cosmos 1544 4.5 21:13:33 10° SSW 21:16:57 38° W 21:20:24 10° N
Resurs 01 Rocket 3.9 21:14:02 10° SSW 21:17:32 23° W 21:21:02 10° NW
RESURS DK-1 3.9 21:16:52 10° NW 21:20:35 33° WSW 21:22:06 25° SSW
Cosmos 2082 Rocket 2.1 21:15:30 10° NNW 21:21:10 64° ENE 21:21:38 61° E
Cosmos 2016 Rocket 4.3 21:22:04 45° ENE 21:22:04 45° ENE 21:27:13 10° NNE
ERS-1 Rocket 3.1 21:23:31 57° NE 21:23:31 57° NE 21:28:05 10° N
Meteor 1-29 4.4 21:21:39 10° N 21:24:53 37° WNW 21:26:20 25° WSW
Cosmos 1818 3.4 21:20:05 10° NNW 21:25:34 82° ENE 21:26:00 74° ESE
COSMOS 2487 4.3 21:23:06 10° NNW 21:24:44 25° N 21:24:44 25° N
Cosmos 2100 Rocket 3.9 21:28:37 21° S 21:33:01 90° SE 21:39:25 10° N
Lacrosse 5 3.3 21:28:45 10° WSW 21:33:25 36° NW 21:37:28 13° NNE
Cosmos 1766 Rocket 3.9 21:30:51 10° NNW 21:35:09 63° W 21:35:09 63° W
SPOT 5 4.1 21:37:51 34° NNE 21:37:51 34° NNE 21:41:18 10° N
Cosmos 1269 Rocket 4.0 21:35:12 10° NNW 21:40:29 74° WSW 21:40:35 74° WSW
ARGOS 4.3 21:48:14 32° NNE 21:48:14 32° NNE 21:51:24 10° N
Cosmos 1802 Rocket 3.9 21:49:52 73° SSW 21:50:29 84° W 21:56:41 10° N
CZ-3B DEB 4.1 21:43:25 10° W 21:50:59 28° NW 21:54:17 15° NNE
Cosmos 2061 Rocket 4.3 21:56:15 40° SSW 21:58:36 67° W 22:05:00 10° N
Cosmos 1867 4.2 21:53:53 10° SW 21:59:11 53° NW 22:04:33 10° NNE
Timation 2 Rocket 4.1 21:58:51 10° NNW 22:04:44 69° W 22:04:44 69° W
H-2A R/B 4.0 22:26:33 24° N 22:26:33 24° N 22:28:37 10° N
USA 215 4.5 22:21:56 10° NE 22:27:50 37° NNW 22:33:43 10° W
Cosmos 1833 Rocket 4.2 22:30:34 10° NW 22:34:24 30° W 22:34:24 30° W
USA 267 4.3 23:02:01 40° NW 23:02:01 40° NW 23:05:59 10° NW
